Location: Chochol
(49.7771°N, 14.9780°E)
Time: 23:09:49
(UTC+00:00)

Cosmos 2208 Rocket - Pass Details

Date: 09 April 2020
Orbit: 754 x 806 km, 74.0° (Epoch: 27 May)

Event Time Altitude Azimuth Distance (km) Brightness Sun altitude
Rises 19:46:20 0° 338° (NNW) 3,224 8.3 -18.4°
Reaches altitude 10° 19:48:46 10° 344° (NNW) 2,299 7.3 -18.7°
Maximum altitude 19:53:51 53° 61° (ENE) 942 4.3 -19.3°
Enters shadow 19:55:30 38° 113° (ESE) 1,164 4.4 -19.5°
